Date,TemperatureHighF,TemperatureAvgF,TemperatureLowF,DewpointHighF,DewpointAvgF,DewpointLowF,HumidityHigh,HumidityAvg,HumidityLow,PressureMaxIn,PressureMinIn,WindSpeedMaxMPH,WindSpeedAvgMPH,GustSpeedMaxMPH,PrecipitationSumIn
2013-1-1,49.0,46.2,43.6,48.2,41.8,30.7,98,86,59,30.03,29.84,6,0,7,0.00
2013-1-2,48.4,43.0,38.6,48.1,42.1,37.8,100,97,90,30.12,29.83,6,0,9,0.00
2013-1-3,43.7,39.1,37.8,38.1,37.2,35.4,98,93,76,30.16,30.07,4,0,4,0.00
2013-1-24,35.9,34.7,32.3,18.6,17.3,15.5,56,49,45,30.25,30.18,13,4,20,0.00
2013-1-25,34.4,34.4,34.4,31.7,31.5,31.2,90,89,88,30.19,30.18,0,0,0,0.00
2013-1-26,34.4,34.4,34.4,31.7,31.6,31.4,90,90,89,30.19,30.18,0,0,0,0.00
2013-1-27,38.7,37.7,36.2,30.6,29.6,28.7,76,73,70,30.47,30.45,4,0,7,0.00
2013-1-28,50.6,47.8,40.5,46.3,42.0,35.3,88,80,68,30.37,30.14,3,0,5,0.00
2013-1-29,48.7,48.2,47.6,47.0,45.7,44.8,94,91,88,30.14,30.13,3,0,4,0.00
2013-1-30,70.1,70.1,70.1,63.2,63.2,63.2,79,79,79,29.56,29.56,7,7,7,0.00
2013-1-31,48.7,46.6,45.6,36.5,31.5,27.5,67,56,45,29.75,29.62,16,4,19,0.06
2013-2-1,37.9,32.9,25.4,16.7,10.7,7.5,58,40,30,30.32,30.03,14,2,18,0.00
2013-2-2,43.4,31.6,17.1,36.8,16.4,9.6,86,55,32,30.33,29.95,8,0,11,0.00
2013-2-3,48.9,41.0,30.1,37.6,32.1,25.5,93,73,45,29.95,29.77,10,1,12,0.01
2013-2-4,48.2,37.4,25.6,29.4,25.5,21.7,89,64,40,30.06,29.90,6,0,6,0.00
2013-2-5,60.9,46.3,38.4,39.1,34.4,28.9,83,65,40,29.94,29.79,7,0,9,0.00
2013-2-6,62.6,46.1,30.7,38.3,32.6,29.0,95,64,30,30.20,29.88,10,0,10,0.00
2013-2-7,49.9,42.1,35.5,43.5,38.3,33.8,97,87,72,30.25,29.90,10,1,12,0.01
2013-2-8,44.3,42.5,40.5,43.5,41.6,39.4,97,97,95,29.90,29.69,12,2,19,0.07
2013-2-12,60.9,53.1,47.8,40.4,36.8,30.4,74,56,32,29.91,29.81,4,0,13,0.00
2013-2-13,48.0,46.4,44.2,47.2,44.5,38.5,98,94,71,29.87,29.53,7,0,11,0.35
2013-2-16,39.5,33.6,30.6,36.8,32.5,29.4,100,96,90,29.84,29.73,5,0,7,0.30
2013-2-17,36.2,29.2,23.3,29.7,19.3,12.5,97,69,39,30.20,29.82,12,1,18,0.09
2013-2-18,46.2,25.8,17.6,21.6,17.4,14.0,92,73,37,30.35,30.20,4,0,5,0.00
2013-2-23,43.7,43.1,41.1,43.3,42.5,40.5,99,98,98,29.84,29.73,3,0,8,0.07
2013-2-24,61.8,49.8,43.5,48.3,41.0,28.9,99,75,39,29.95,29.70,7,1,10,0.24
2013-2-25,44.4,37.6,32.5,31.5,26.7,23.3,77,65,52,30.15,29.95,10,1,11,0.00
2013-2-26,59.2,45.6,35.0,58.7,43.1,27.5,99,91,72,30.07,29.48,12,1,16,0.93
2013-2-27,60.3,49.2,40.7,47.3,42.0,38.5,98,79,47,29.69,29.52,10,1,13,0.00
2013-2-28,49.3,40.9,32.6,39.0,33.8,28.4,98,78,51,29.76,29.60,9,0,13,0.00
2013-3-1,49.9,39.2,28.2,34.3,30.4,26.6,95,73,47,29.83,29.74,9,0,9,0.00
2013-3-2,49.4,39.6,29.4,31.2,27.9,22.3,90,64,44,29.83,29.72,6,0,10,0.00
2013-3-3,46.8,36.4,28.5,25.9,22.5,17.9,77,58,42,29.89,29.75,11,1,13,0.00
2013-3-4,45.4,32.0,25.0,20.4,17.7,15.9,69,56,36,30.02,29.88,7,1,11,0.00
2013-3-11,70.4,64.9,59.1,53.5,52.4,50.6,78,65,52,30.05,29.87,7,2,10,0.00
2013-3-12,71.5,62.0,57.6,63.9,58.9,52.9,98,90,66,29.88,29.64,7,1,13,0.36
2013-4-5,63.4,54.5,44.0,48.7,46.7,42.5,96,76,55,29.92,29.80,9,1,9,0.03
2013-4-6,63.2,51.7,40.3,42.6,36.3,29.3,100,60,33,30.21,29.92,9,1,12,0.00
2013-4-7,71.8,54.0,33.7,50.6,40.8,31.5,95,65,39,30.21,30.03,6,0,6,0.00
2013-4-8,80.0,65.9,51.8,59.6,54.4,50.5,98,70,44,30.09,29.96,7,1,10,0.00
2013-4-9,84.7,70.9,57.5,62.7,58.9,55.3,98,69,42,30.09,29.96,6,0,10,0.00
2013-4-10,87.5,73.7,59.8,64.5,61.2,57.6,94,68,44,30.01,29.84,6,0,11,0.00
2013-4-11,82.9,71.5,60.8,67.3,61.6,58.3,96,73,47,29.90,29.72,7,0,9,0.00
2013-4-12,79.4,71.2,63.5,71.3,65.9,52.7,98,84,65,29.74,29.52,9,1,12,0.45
2013-4-13,74.4,63.9,52.5,53.8,45.5,39.4,79,53,33,29.91,29.65,5,0,7,0.00
2013-4-14,58.5,56.7,55.3,52.8,51.6,49.7,88,83,79,29.94,29.91,0,0,1,0.00
2013-5-15,58.5,58.5,58.5,52.3,52.3,52.3,80,80,80,29.98,29.98,0,0,2,0.00
2013-8-28,83.6,79.2,76.6,77.7,76.7,74.4,97,92,78,29.89,29.78,3,0,3,0.02
2013-8-29,84.8,80.1,76.9,76.9,75.7,74.0,97,87,73,29.93,29.74,4,0,8,0.00
2013-8-30,85.6,80.7,72.1,74.0,72.4,68.1,93,77,59,29.98,29.86,3,0,5,0.00
2013-8-31,86.6,81.1,75.2,75.5,72.8,71.4,95,77,64,29.90,29.78,4,0,5,0.00
2013-9-1,86.7,80.7,77.5,80.6,74.9,72.9,96,83,75,29.82,29.71,4,0,7,0.19
2013-9-2,87.1,80.2,74.6,79.8,76.6,74.4,100,89,74,29.80,29.71,2,0,4,0.00